Temperature
14 14 14 15 15 15 15 16 16 16 16 16 16 16 16 16 16 16 16 16 16 15 16 16 16 16 15 15 15 15 15 15 15 15 15 15 15 14 14 14 14 14 14
14 14 14 15 15 15 15 15 15 15 16 16 16 16 16 16 16 16 16 16 16 15 15 15 16 15 15 15 15 15 15 15 15 15 15 15 14 14 14 14 14 14 14
14 14 14 15 15 15 15 15 15 15 15 15 15 15 16 16 16 15 16 15 15 15 15 15 15 15 15 15 15 15 15 15 15 15 15 15 14 14 14 14 14 14 14
14 14 14 14 15 15 15 15 15 15 15 15 15 15 15 15 15 15 15 15 15 15 15 15 15 15 15 15 15 15 14 14 14 14 14 14 14 14 14 14 14 14 14
14 14 14 14 14 14 14 15 15 15 15 15 15 15 15 15 15 15 15 15 15 15 15 15 15 15 15 15 15 14 14 14 14 14 14 14 14 14 14 14 13 14 14
13 14 14 14 14 14 14 14 14 14 14 15 15 15 15 15 15 15 15 15 15 15 15 15 15 15 15 15 14 14 14 14 14 14 14 14 14 14 14 13 13 13 13
13 13 13 13 14 14 14 14 14 14 14 14 14 14 15 15 14 15 15 15 15 15 15 15 15 15 15 14 14 14 14 14 13 14 13 13 13 13 13 13 13 13 13
13 13 13 13 13 13 13 14 14 14 14 14 14 14 14 14 14 15 14 14 14 15 14 14 14 14 14 14 14 14 13 13 13 13 13 13 13 13 13 13 13 13 13
13 13 13 13 13 13 13 13 13 13 13 14 14 14 14 14 14 14 14 14 14 14 14 14 14 14 14 14 14 14 13 13 13 13 13 13 13 13 13 13 13 13 13
12 12 12 12 12 12 13 13 13 13 13 13 13 14 14 14 14 14 14 14 14 14 14 14 14 14 14 14 13 13 13 13 13 13 13 13 12 12 13 13 13 13 12
12 12 12 12 12 12 12 12 12 12 12 12 13 13 13 13 13 13 13 14 14 14 14 14 13 14 13 13 13 13 13 13 13 13 12 12 12 12 12 12 12 12 12
12 12 12 12 12 12 12 12 12 12 12 12 12 12 12 13 13 13 13 13 13 13 13 13 13 13 13 13 13 13 13 13 12 12 12 12 12 12 12 12 12 12 12
11 11 11 11 11 11 11 11 11 11 11 12 12 12 12 12 12 12 12 13 13 13 13 13 13 13 13 13 13 12 12 12 12 12 12 12 12 12 12 12 12 12 12
11 11 11 11 11 11 11 11 11 11 11 11 11 12 12 12 12 12 12 12 12 12 12 12 12 12 12 12 12 12 12 12 12 12 12 11 11 11 11 11 11 11 11
10 10 10 10 10 10 11 11 11 11 11 11 11 11 11 11 11 11 12 12 12 12 12 12 12 12 12 12 12 12 12 12 11 11 11 11 11 11 11 11 11 11 11
10 10 10 10 10 10 10 10 10 10 10 11 11 11 11 11 11 11 11 11 12 12 12 12 12 12 12 11 11 11 11 11 11 11 11 11 11 11 11 11 10 10 10
9 9 9 9 9 10 10 10 10 10 10 10 10 10 10 10 10 11 11 11 11 11 11 11 11 11 11 11 11 11 11 11 10 10 10 10 10 10 10 10 10 10 10
9 9 9 9 9 9 9 9 9 9 9 9 9 9 10 10 10 10 10 10 10 10 11 11 11 11 11 11 11 10 10 10 10 10 10 10 10 10 10 10 10 10 10
9 9 9 8 8 9 9 9 8 9 9 9 9 9 9 9 9 9 9 9 9 10 10 10 10 10 10 10 10 10 10 9 9 9 10 10 10 10 10 9 9 9 9
8 8 8 8 8 8 8 8 8 8 8 8 8 8 8 8 8 8 9 9 9 9 9 9 9 9 10 9 9 9 9 9 9 9 9 9 9 9 9 9 9 9 9
8 8 7 7 7 7 7 8 8 8 8 8 8 8 8 8 8 8 8 8 8 8 9 9 9 9 9 9 9 9 8 8 8 9 9 9 9 9 9 9 9 8 8
7 7 7 7 7 7 7 7 7 7 7 7 7 7 7 7 7 7 7 7 8 8 8 8 8 8 8 8 8 8 8 8 8 8 8 8 8 8 8 8 8 8 8
6 6 6 6 6 6 6 6 6 6 6 6 6 6 6 6 6 7 7 7 7 7 7 7 8 8 8 8 8 8 7 7 7 7 8 8 7 7 8 8 8 8 7
5 6 6 6 6 6 6 6 6 6 6 6 6 6 6 6 6 6 6 6 6 7 7 7 7 7 7 7 7 7 7 7 7 6 7 7 7 7 7 7 7 7 7
5 5 5 5 5 5 5 5 5 5 5 5 5 5 5 5 5 5 6 6 6 6 6 6 6 6 6 6 6 6 6 6 6 6 6 6 6 6 6 6 6 6 6
5 5 5 5 5 5 4 4 4 4 4 5 5 5 5 5 5 5 5 5 5 5 5 6 6 6 6 6 6 6 6 6 5 5 5 5 5 6 6 6 6 6 6
Wind_Speed
1 1 4 6 7 7 7 7 7 8 8 8 8 8 9 9 9 10 10 11 12 12 11 12 12 12 13 13 13 13 13 13 13 13 13 13 14 14 14 14 13 12 13
1 1 4 6 7 8 8 9 8 8 7 7 8 7 7 8 9 9 10 10 11 11 10 10 11 11 12 12 12 12 12 12 12 12 12 12 12 13 13 12 12 11 12
2 3 4 6 7 7 8 8 8 8 7 7 7 7 7 7 7 8 9 9 10 10 10 10 10 10 11 11 11 11 11 11 11 11 11 10 10 11 12 12 12 12 12
3 3 4 7 7 7 8 8 8 8 7 7 6 6 6 6 7 7 8 8 9 9 9 10 10 10 10 10 10 10 10 10 10 10 9 8 8 10 11 11 11 11 11
5 5 5 8 8 8 8 8 8 8 7 6 6 6 6 6 6 7 7 8 8 8 8 9 10 10 9 9 9 9 9 9 10 9 8 7 7 9 10 10 10 10 10
5 6 6 8 8 7 7 8 7 7 7 6 6 5 5 5 6 6 7 7 8 8 8 9 9 9 9 8 8 8 9 9 9 7 7 7 6 8 9 9 9 9 9
5 7 7 9 8 8 8 7 7 7 7 6 5 5 5 5 5 5 7 8 8 8 8 9 9 8 8 8 7 8 8 8 8 7 6 6 6 7 8 8 8 8 8
5 6 7 8 9 9 8 7 7 6 6 6 5 4 4 4 4 5 6 7 7 7 8 8 8 8 7 7 7 7 7 7 7 6 5 5 6 7 8 8 7 7 7
6 6 6 6 7 8 8 7 7 7 7 6 6 6 5 4 4 5 6 6 6 6 7 8 8 7 7 6 7 7 7 8 7 6 5 5 6 7 7 8 7 7 7
5 5 5 6 6 6 7 7 7 7 7 7 7 6 6 5 4 4 5 5 5 5 6 6 7 7 6 6 6 7 8 8 7 6 4 5 6 6 7 7 7 6 6
4 3 4 5 5 5 5 5 6 6 6 7 6 7 7 5 4 4 4 4 5 5 5 6 6 6 5 5 5 7 7 6 6 4 4 5 6 6 6 6 6 6 6
1 1 2 3 4 4 4 5 5 5 6 6 6 6 6 6 6 5 5 4 4 5 5 5 5 5 4 3 4 6 5 6 5 4 4 5 6 5 6 5 5 6 5
1 1 2 2 3 3 3 4 4 4 5 5 6 6 5 5 6 6 5 5 4 4 4 4 4 3 3 3 3 4 5 5 4 3 3 5 6 6 5 5 5 5 5
2 2 1 2 3 3 3 4 4 4 4 4 4 4 4 4 4 4 4 4 3 3 3 3 3 3 3 3 4 4 4 4 4 4 4 5 6 6 5 5 4 4 4
2 1 1 2 3 3 3 3 3 3 3 3 4 4 4 4 3 3 3 3 3 3 2 2 3 2 2 2 3 4 3 4 5 5 4 5 6 5 4 4 3 3 3
2 1 1 2 2 3 3 2 3 3 3 3 4 4 4 3 3 3 2 2 3 3 2 2 2 3 2 2 2 2 3 3 4 5 4 4 5 4 4 3 3 3 2
2 2 2 2 3 3 3 2 3 2 3 3 3 4 4 4 3 3 3 2 2 2 3 3 2 2 2 2 1 1 2 3 3 4 4 4 3 3 3 3 3 3 2
2 2 2 2 2 3 2 3 3 3 3 3 3 3 4 4 4 3 3 2 2 2 3 2 1 1 1 1 1 0 1 2 3 3 3 3 3 2 3 3 3 3 2
3 3 2 2 2 2 3 3 3 3 4 3 3 3 3 4 3 3 2 2 3 3 2 2 1 1 1 1 1 1 0 0 1 2 2 2 2 2 2 2 2 2 2
3 3 3 2 2 2 2 3 2 3 3 4 4 3 4 3 3 3 3 2 3 2 1 1 1 1 1 1 1 1 0 0 1 1 1 1 1 2 2 2 1 1 1
3 3 3 2 2 2 1 1 1 1 1 2 3 3 3 3 3 3 2 2 1 1 1 1 1 2 1 1 2 1 2 1 0 0 0 1 0 1 2 2 1 1 1
3 2 2 2 2 1 1 0 0 1 0 1 2 3 3 3 3 2 2 1 1 1 1 1 1 1 1 1 2 2 0 2 2 1 1 1 1 0 0 1 1 1 1
2 2 1 1 1 1 1 2 2 2 1 1 1 2 2 2 2 2 2 1 1 1 1 1 1 1 1 1 1 2 3 3 1 2 1 1 1 1 1 1 1 2 2
2 1 1 1 1 1 2 2 2 1 1 2 1 1 2 2 2 2 2 1 1 1 1 1 1 1 2 1 1 0 1 2 2 1 2 1 1 1 2 1 1 2 3
2 1 1 2 1 1 1 1 1 1 1 1 1 1 1 2 2 2 1 1 1 1 1 1 1 1 2 2 1 1 0 0 0 2 2 2 2 2 2 2 2 2 3
1 2 2 2 1 1 1 1 2 2 1 1 1 1 1 1 1 1 1 0 1 1 2 2 2 2 2 2 2 1 1 1 2 1 2 2 2 2 2 1 2 2 3
Wind_Direction
314 329 85 71 69 77 79 82 90 102 103 102 97 95 100 100 100 105 109 110 109 110 108 105 101 100 100 98 97 99 98 97 97 99 98 97 97 96 95 93 92 91 93
211 96 93 77 77 80 79 77 83 96 100 103 101 99 102 104 103 107 111 112 112 114 114 110 106 104 101 102 101 101 100 96 95 97 96 96 99 101 100 101 98 98 96
74 86 92 87 86 83 80 79 79 87 96 100 102 104 104 110 110 111 112 113 115 115 117 116 112 109 105 103 106 106 101 97 96 98 94 89 97 105 105 104 103 101 99
69 81 89 97 97 90 86 82 79 79 88 97 101 104 104 110 115 115 115 116 117 116 118 119 117 115 111 108 108 109 106 102 100 101 94 91 99 108 110 109 107 106 103
59 68 88 101 100 95 88 84 80 77 78 89 94 101 105 108 117 119 117 118 119 119 119 118 117 120 117 111 108 111 111 108 107 101 101 98 103 110 113 114 113 112 109
52 55 76 92 96 92 88 87 83 80 76 78 85 92 105 107 118 122 120 120 120 124 124 120 118 122 123 121 113 113 115 114 107 98 109 107 110 116 116 117 117 118 116
61 52 64 77 83 87 87 88 84 80 78 74 77 85 95 102 112 125 127 126 125 127 131 131 129 129 132 129 124 120 116 114 108 102 111 115 121 126 125 122 122 124 123
78 59 59 69 76 75 79 85 85 78 74 72 70 78 93 94 107 120 127 130 130 132 135 137 135 134 132 134 132 128 121 115 114 110 118 125 126 127 130 130 128 128 129
74 65 57 60 73 74 73 77 77 74 70 66 65 66 75 87 101 118 125 129 125 124 131 135 137 137 135 131 131 126 120 118 107 113 125 134 135 131 134 134 132 131 131
71 62 57 58 66 69 67 71 68 66 64 61 58 59 67 73 87 109 121 129 126 122 126 136 142 141 138 134 124 123 120 120 106 110 123 134 139 137 136 139 138 135 130
61 59 57 59 64 72 74 69 66 63 59 58 56 60 62 56 67 86 98 122 131 129 130 138 144 140 134 130 123 117 119 116 108 108 124 136 144 144 136 139 137 134 132
76 63 64 66 69 80 81 70 61 58 57 53 49 52 56 60 60 66 76 86 108 123 129 125 126 127 121 111 120 115 114 119 112 116 135 143 147 141 137 138 136 134 130
137 92 81 86 83 85 79 78 65 57 53 53 48 47 55 61 60 59 63 61 71 96 101 102 97 87 97 104 108 109 117 120 121 123 133 144 146 138 130 126 128 123 120
86 82 78 82 79 78 88 84 78 66 58 52 45 46 61 64 60 57 60 55 62 74 80 87 88 76 80 96 113 113 116 123 126 128 128 136 140 134 127 123 126 129 124
96 82 68 81 86 76 74 73 74 70 71 68 54 49 65 72 66 62 58 63 60 64 79 101 103 98 86 84 102 117 120 125 126 129 137 143 143 137 133 133 138 145 146
123 91 75 79 82 78 83 80 71 81 79 69 59 54 64 75 78 71 59 58 58 62 66 111 123 128 130 108 96 111 125 127 124 128 130 140 146 147 148 148 147 143 145
127 109 88 98 78 88 94 90 74 83 92 74 63 60 62 68 72 77 68 51 38 60 65 64 88 111 123 113 106 101 116 128 123 126 130 134 147 155 158 160 149 146 144
105 100 97 86 81 84 84 78 72 80 85 77 68 64 64 68 72 78 75 51 42 63 74 74 56 122 129 121 136 157 84 112 124 135 132 135 139 155 173 165 162 159 159
121 105 88 82 92 95 79 67 68 72 70 66 62 56 60 67 77 81 78 59 58 60 56 72 78 130 134 115 142 127 75 125 140 128 127 139 152 153 155 171 175 180 192
111 98 87 74 64 77 72 69 63 62 57 54 55 48 56 58 69 80 72 62 71 70 59 57 86 80 120 145 135 90 43 266 141 144 166 143 170 175 161 157 164 233 250
98 95 95 89 62 72 75 85 99 68 38 39 46 42 51 51 58 77 69 56 66 106 125 114 122 101 67 94 99 54 353 341 335 241 171 131 129 187 165 157 163 196 256
118 113 108 104 104 102 93 71 203 193 228 29 30 28 36 48 50 68 76 81 69 112 100 107 115 129 88 96 129 132 312 327 311 286 254 210 226 7 101 182 179 207 240
111 135 136 127 114 113 77 70 57 45 21 10 356 347 7 35 51 65 83 89 80 122 170 182 150 146 165 174 122 142 158 215 271 296 265 243 230 211 238 263 225 226 230
173 154 132 134 109 99 101 107 120 144 218 253 267 289 347 23 40 51 73 93 105 129 186 218 174 173 166 194 231 262 161 152 171 278 310 293 265 241 237 256 265 256 243
156 140 125 105 92 82 111 156 161 187 242 282 300 302 324 347 15 25 46 90 154 202 210 206 209 199 189 190 191 186 165 69 148 177 243 286 306 277 258 252 255 261 253
109 98 95 97 77 68 138 191 184 201 234 288 307 284 282 289 310 350 3 350 232 225 227 219 212 209 210 199 196 190 176 174 193 186 221 246 258 275 281 261 249 263 268
Height
1521 1521 1522 1522 1522 1522 1523 1523 1523 1523 1524 1524 1524 1525 1525 1525 1526 1526 1527 1527 1527 1528 1528 1528 1529 1529 1529 1529 1529 1530 1530 1530 1531 1531 1532 1532 1532 1533 1533 1533 1534 1534 1534
1520 1520 1521 1521 1522 1522 1522 1523 1523 1523 1524 1524 1524 1525 1525 1526 1526 1526 1527 1527 1528 1528 1528 1529 1529 1530 1530 1530 1530 1531 1531 1531 1532 1532 1533 1533 1533 1534 1534 1534 1535 1535 1535
1519 1520 1520 1521 1522 1522 1522 1522 1523 1523 1523 1524 1524 1524 1525 1525 1526 1526 1527 1527 1528 1528 1528 1529 1530 1530 1530 1530 1531 1531 1532 1532 1532 1533 1533 1534 1534 1535 1535 1535 1535 1536 1536
1519 1519 1520 1520 1521 1521 1522 1522 1522 1523 1523 1523 1524 1524 1524 1525 1525 1526 1527 1527 1528 1528 1528 1529 1530 1530 1530 1531 1531 1532 1532 1532 1533 1533 1534 1534 1535 1535 1535 1536 1536 1536 1537
1518 1519 1519 1520 1520 1520 1521 1521 1521 1522 1522 1523 1523 1523 1524 1524 1525 1525 1526 1527 1527 1528 1528 1529 1529 1530 1530 1531 1531 1532 1532 1533 1533 1534 1534 1535 1535 1536 1536 1536 1536 1537 1537
1517 1518 1518 1519 1519 1520 1520 1520 1520 1521 1521 1521 1522 1522 1523 1523 1524 1525 1525 1526 1526 1527 1528 1528 1529 1529 1530 1530 1531 1531 1532 1533 1533 1534 1534 1535 1535 1536 1536 1536 1537 1537 1537
1516 1517 1517 1518 1518 1519 1519 1519 1519 1520 1520 1520 1520 1521 1522 1522 1523 1524 1524 1525 1525 1526 1527 1527 1528 1529 1529 1530 1530 1531 1532 1532 1533 1533 1534 1534 1535 1536 1536 1536 1536 1537 1537
1515 1516 1516 1517 1517 1517 1518 1518 1518 1518 1519 1519 1519 1519 1520 1520 1521 1522 1523 1524 1524 1525 1526 1526 1527 1528 1528 1529 1530 1530 1531 1532 1533 1533 1534 1534 1535 1535 1536 1536 1536 1536 1537
1515 1515 1515 1516 1516 1516 1517 1517 1517 1517 1517 1517 1518 1518 1518 1519 1520 1520 1521 1522 1523 1523 1524 1525 1526 1527 1527 1528 1529 1530 1530 1531 1532 1533 1533 1534 1535 1535 1535 1536 1536 1536 1536
1514 1514 1514 1514 1515 1515 1515 1516 1516 1516 1516 1516 1516 1517 1517 1517 1518 1519 1520 1520 1521 1522 1522 1523 1524 1525 1526 1527 1527 1528 1529 1530 1531 1532 1533 1533 1534 1534 1535 1535 1535 1536 1536
1512 1512 1512 1513 1513 1513 1514 1514 1514 1515 1515 1515 1515 1515 1516 1516 1516 1517 1518 1518 1519 1520 1521 1522 1523 1524 1525 1526 1527 1527 1528 1529 1530 1531 1532 1532 1533 1534 1534 1534 1534 1535 1535
1510 1511 1511 1511 1511 1512 1512 1512 1513 1513 1513 1513 1513 1514 1514 1514 1515 1515 1516 1516 1517 1518 1519 1520 1521 1523 1523 1524 1525 1526 1527 1528 1529 1530 1530 1531 1532 1533 1533 1533 1533 1534 1534
1509 1509 1509 1510 1510 1510 1510 1511 1511 1511 1512 1512 1512 1512 1512 1512 1513 1513 1514 1514 1515 1516 1517 1518 1520 1521 1522 1523 1524 1525 1526 1527 1527 1528 1529 1530 1531 1531 1532 1532 1532 1533 1533
1507 1507 1508 1508 1508 1508 1509 1509 1509 1510 1510 1510 1510 1510 1510 1510 1511 1511 1512 1513 1514 1514 1515 1517 1518 1519 1520 1521 1522 1523 1524 1525 1526 1527 1527 1528 1529 1530 1530 1531 1531 1531 1531
1506 1506 1506 1506 1506 1506 1507 1507 1508 1508 1508 1508 1508 1508 1508 1509 1509 1509 1510 1510 1511 1512 1513 1514 1515 1517 1518 1519 1520 1521 1522 1523 1524 1525 1526 1527 1527 1528 1529 1529 1529 1530 1530
1504 1504 1504 1505 1505 1505 1505 1505 1505 1506 1506 1506 1506 1506 1507 1507 1507 1507 1508 1508 1509 1510 1511 1512 1513 1515 1516 1517 1518 1519 1521 1522 1522 1523 1524 1525 1526 1526 1527 1527 1528 1528 1528
1503 1503 1503 1503 1503 1503 1503 1503 1503 1503 1504 1504 1504 1504 1505 1505 1505 1505 1506 1506 1507 1508 1509 1510 1511 1512 1514 1515 1516 1517 1519 1520 1521 1521 1522 1523 1524 1524 1525 1525 1526 1526 1526
1501 1501 1501 1501 1501 1501 1501 1501 1501 1501 1502 1502 1502 1502 1503 1503 1503 1503 1504 1504 1505 1505 1506 1507 1508 1510 1511 1512 1514 1515 1516 1517 1519 1519 1520 1521 1521 1522 1523 1523 1523 1524 1524
1499 1499 1499 1499 1499 1499 1499 1500 1500 1500 1500 1500 1500 1500 1500 1501 1501 1501 1501 1502 1503 1503 1504 1505 1506 1507 1508 1509 1511 1513 1513 1515 1516 1517 1517 1518 1519 1519 1520 1520 1521 1521 1522
1496 1497 1497 1497 1497 1497 1497 1498 1498 1497 1498 1498 1498 1498 1498 1499 1499 1499 1499 1500 1500 1501 1502 1503 1504 1505 1505 1507 1508 1510 1511 1512 1513 1514 1515 1515 1516 1516 1517 1517 1518 1518 1519
1494 1494 1495 1495 1495 1495 1495 1495 1495 1495 1495 1495 1496 1496 1496 1497 1497 1497 1497 1497 1498 1499 1499 1501 1501 1502 1503 1504 1506 1507 1508 1509 1510 1510 1511 1512 1513 1513 1513 1514 1514 1515 1515
1492 1492 1493 1493 1493 1493 1493 1493 1493 1493 1493 1493 1494 1494 1494 1494 1494 1494 1495 1495 1496 1496 1497 1498 1499 1499 1500 1502 1503 1504 1505 1507 1506 1507 1508 1509 1510 1510 1510 1511 1511 1512 1512
1489 1490 1490 1491 1491 1491 1491 1491 1491 1491 1491 1491 1491 1491 1491 1492 1492 1492 1492 1493 1493 1494 1494 1495 1496 1497 1497 1499 1500 1501 1502 1502 1503 1504 1504 1506 1506 1507 1507 1508 1508 1509 1509
1488 1488 1489 1489 1489 1489 1489 1489 1489 1488 1488 1488 1488 1488 1489 1489 1489 1489 1490 1490 1491 1491 1492 1492 1493 1494 1495 1495 1497 1498 1499 1499 1500 1500 1501 1502 1503 1503 1504 1504 1505 1505 1506
1486 1486 1487 1487 1486 1487 1487 1487 1487 1486 1486 1486 1486 1486 1486 1486 1486 1487 1487 1487 1488 1488 1489 1489 1490 1491 1492 1492 1493 1494 1495 1496 1497 1497 1497 1498 1499 1500 1500 1501 1501 1502 1502
1484 1485 1485 1484 1484 1485 1485 1484 1484 1484 1484 1483 1483 1482 1482 1483 1483 1483 1484 1484 1484 1485 1485 1486 1487 1487 1488 1489 1490 1491 1491 1492 1493 1493 1494 1494 1494 1495 1496 1497 1497 1498 1498